This demonstration page uses our WeatherBlox Daily Observations layout. Learn more.

40.92945, -100.16068

Hourly Observations for April 25, 2017

Temp ( °F °C ) Dew Point ( °F °C ) Humidity (%) Winds ( mph kmh ) Pressure ( in mb ) Visibility ( mi km ) Precip ( " mm )
12:15 am 00:15 Mostly Cloudy 55 12.8 40 4.7 58 58 NE 8 13 29.56 1001 10 16.0934 0 0
12:35 am 00:35 Cloudy 55 12.8 40 4.7 58 58 NE 14 22 29.53 1000 10 16.0934 0 0
12:55 am 00:55 Cloudy 54 12.4 40 4.5 59 59 NE 18 30 29.53 1000 10 16.0934 0 0
1:15 am 01:15 Cloudy 54 12 40 4.4 60 60 NE 16 26 29.5 999 10 16.0934 0 0
1:35 am 01:35 Cloudy with Light Rain 52 11.1 41 5 66 66 NE 13 20 29.53 1000 10 16.0934 0 0
1:55 am 01:55 Cloudy 52 11 41 4.9 66 66 N 8 13 29.56 1001 10 16.0934 0 0
2:15 am 02:15 Cloudy with Light Rain 51 10.3 42 5.3 71 71 NNE 13 20 29.56 1001 10 16.0934 0 0
2:35 am 02:35 Cloudy 50 10 42 5.4 73 73 N 7 11 29.62 1003 10 16.0934 0 0
2:55 am 02:55 Cloudy with Light Rain 48 8.9 43 6 82 82 NE 12 19 29.59 1002 10 16.0934 0.01 0.254
3:15 am 03:15 Cloudy with Light Thunderstorms 47 8.5 42 5.5 82 82 ENE 15 24 29.56 1001 10 16.0934 0 0
3:35 am 03:35 Mostly Cloudy 47 8.2 42 5.3 82 82 ENE 15 24 29.56 1001 10 16.0934 0 0
3:55 am 03:55 Mostly Cloudy 47 8.1 41 5.2 82 82 ENE 15 24 29.56 1001 10 16.0934 0 0
4:15 am 04:15 Cloudy 47 8.1 41 5.1 82 82 ENE 14 22 29.53 1000 10 16.0934 0 0
4:35 am 04:35 Cloudy with Light Drizzle 46 8 41 5 82 82 NE 15 24 29.53 1000 10 16.0934 0 0
4:55 am 04:55 Cloudy with Light Thunderstorms 46 8 41 5.1 82 82 NE 9 15 29.53 1000 10 16.0934 0 0
5:15 am 05:15 Cloudy with Light Thunderstorms 45 7.4 41 5 85 85 ENE 12 19 29.53 1000 10 16.0934 0.06 1.524
5:35 am 05:35 Cloudy 45 7.1 41 5 87 87 ENE 12 19 29.5 999 10 16.0934 0.06 1.524
5:55 am 05:55 Cloudy 45 7.2 41 5 86 86 ENE 12 19 29.5 999 10 16.0934 0.06 1.524
6:15 am 06:15 Cloudy 46 7.5 41 5.2 86 86 ENE 9 15 29.5 999 10 16.0934 0 0
6:35 am 06:35 Cloudy with Nearby Thunderstorms 46 7.5 41 5.1 85 85 ENE 16 26 29.5 999 10 16.0934 0 0
6:55 am 06:55 Cloudy 46 7.6 41 5.2 85 85 NNW 17 28 29.56 1001 10 16.0934 0 0
7:15 am 07:15 Cloudy 46 7.5 41 5.2 86 86 NW 14 22 29.59 1002 10 16.0934 0 0
7:35 am 07:35 Cloudy with Light Rain 46 7.6 42 5.7 88 88 NW 15 24 29.62 1003 1.25 2.011675 0.04 1.016
7:55 am 07:55 Cloudy with Rain 46 7.5 43 6 90 90 N 13 20 29.59 1002 7 11.26538 0.1 2.54
8:15 am 08:15 Cloudy with Light Rain 46 7.6 43 6.2 91 91 N 15 24 29.59 1002 10 16.0934 0 0
8:35 am 08:35 Cloudy with Rain 45 7.1 42 5.5 90 90 N 17 28 29.62 1003 10 16.0934 0.01 0.254
8:55 am 08:55 Cloudy with Light Rain 44 6.7 41 5.2 90 90 NNE 15 24 29.62 1003 10 16.0934 0.02 0.508
9:15 am 09:15 Cloudy with Light Rain 43 6.1 40 4.5 90 90 N 18 30 29.65 1004 10 16.0934 0.01 0.254
9:35 am 09:35 Cloudy 42 5.5 39 4 90 90 NNE 16 26 29.62 1003 10 16.0934 0.01 0.254
9:55 am 09:55 Cloudy 42 5.5 39 4 90 90 NNE 15 24 29.62 1003 7 11.26538 0.01 0.254
10:15 am 10:15 Cloudy 42 5.5 39 3.8 89 89 NNE 20 31 29.62 1003 10 16.0934 0 0
10:35 am 10:35 Cloudy 42 5.5 38 3.6 88 88 NNE 16 26 29.62 1003 10 16.0934 0 0
10:55 am 10:55 Cloudy 42 5.3 38 3.5 88 88 NNE 14 22 29.62 1003 10 16.0934 0 0
11:15 am 11:15 Cloudy 42 5.5 39 3.9 90 90 N 13 20 29.62 1003 10 16.0934 0 0
11:35 am 11:35 Cloudy 43 6.1 40 4.2 88 88 NNE 14 22 29.59 1002 10 16.0934 0 0
11:55 am 11:55 Cloudy 44 6.7 40 4.6 87 87 N 13 20 29.59 1002 10 16.0934 0 0
12:15 pm 12:15 Cloudy 43 6.3 39 4 85 85 N 10 17 29.62 1003 10 16.0934 0 0
12:35 pm 12:35 Cloudy 43 6.1 39 3.9 86 86 N 15 24 29.65 1004 10 16.0934 0 0
12:55 pm 12:55 Cloudy 42 5.6 38 3.3 85 85 N 14 22 29.65 1004 10 16.0934 0 0
1:15 pm 13:15 Cloudy 42 5.8 38 3.5 85 85 N 14 22 29.65 1004 10 16.0934 0 0
1:35 pm 13:35 Cloudy 42 5.7 38 3.3 85 85 NNE 13 20 29.62 1003 10 16.0934 0 0
1:55 pm 13:55 Cloudy 43 6 38 3.5 84 84 N 9 15 29.65 1004 10 16.0934 0 0
2:15 pm 14:15 Cloudy 44 6.5 39 4 84 84 N 13 20 29.62 1003 10 16.0934 0 0
2:35 pm 14:35 Cloudy 45 7 39 4.1 82 82 N 12 19 29.62 1003 10 16.0934 0 0
2:55 pm 14:55 Cloudy 45 7.1 40 4.5 84 84 N 10 17 29.62 1003 10 16.0934 0 0
3:15 pm 15:15 Cloudy 45 7.2 40 4.5 83 83 N 12 19 29.62 1003 10 16.0934 0 0
3:35 pm 15:35 Cloudy 46 7.5 40 4.5 81 81 N 14 22 29.65 1004 10 16.0934 0 0
3:55 pm 15:55 Cloudy 45 7.4 40 4.4 81 81 N 15 24 29.65 1004 10 16.0934 0 0
4:15 pm 16:15 Cloudy 46 7.6 40 4.5 81 81 N 17 28 29.65 1004 10 16.0934 0 0
4:35 pm 16:35 Cloudy 45 7 39 4.1 82 82 N 21 33 29.65 1004 10 16.0934 0 0
4:55 pm 16:55 Cloudy 44 6.6 38 3.6 81 81 N 17 28 29.65 1004 10 16.0934 0 0
5:15 pm 17:15 Cloudy 43 6.2 38 3.4 82 82 N 21 33 29.68 1005 10 16.0934 0 0
5:35 pm 17:35 Cloudy 43 6.2 37 3 80 80 NNE 18 30 29.68 1005 10 16.0934 0 0
5:55 pm 17:55 Cloudy 42 5.5 37 2.6 82 82 N 18 30 29.71 1006 10 16.0934 0 0
6:15 pm 18:15 Cloudy 42 5.5 37 2.7 82 82 N 21 33 29.71 1006 10 16.0934 0 0
6:35 pm 18:35 Cloudy 41 4.9 36 2.3 83 83 N 20 31 29.71 1006 10 16.0934 0 0
6:55 pm 18:55 Cloudy 40 4.6 36 2 83 83 N 18 30 29.71 1006 10 16.0934 0 0
7:15 pm 19:15 Cloudy 40 4.3 35 1.9 85 85 NNE 17 28 29.71 1006 10 16.0934 0 0
7:35 pm 19:35 Cloudy 39 4 34 1.3 83 83 NNE 21 33 29.74 1007 10 16.0934 0 0
7:55 pm 19:55 Cloudy 39 3.8 34 1.1 83 83 N 18 30 29.77 1008 10 16.0934 0 0
8:15 pm 20:15 Cloudy 39 3.7 34 1.2 84 84 N 17 28 29.77 1008 10 16.0934 0 0
8:35 pm 20:35 Cloudy 38 3.5 34 1 84 84 N 18 30 29.77 1008 10 16.0934 0 0
8:55 pm 20:55 Cloudy 38 3.5 34 1 84 84 N 16 26 29.77 1008 10 16.0934 0 0
9:15 pm 21:15 Cloudy 38 3.2 33 0.6 83 83 N 16 26 29.8 1009 10 16.0934 0 0
9:35 pm 21:35 Cloudy 38 3.1 33 0.5 83 83 N 16 26 29.8 1009 10 16.0934 0 0
9:55 pm 21:55 Cloudy 37 2.7 33 0.3 84 84 N 22 35 29.8 1009 10 16.0934 0 0
10:15 pm 22:15 Cloudy 37 2.7 32 0.2 84 84 NNW 20 31 29.8 1009 10 16.0934 0 0
10:35 pm 22:35 Cloudy 37 2.5 32 0.1 84 84 N 20 31 29.83 1010 10 16.0934 0 0
10:55 pm 22:55 Cloudy 37 2.5 32 0 84 84 N 21 33 29.83 1010 10 16.0934 0 0
11:15 pm 23:15 Cloudy 37 2.5 32 -0.1 83 83 N 22 35 29.83 1010 10 16.0934 0 0
11:35 pm 23:35 Cloudy 36 2.4 32 -0.1 84 84 N 17 28 29.83 1010 10 16.0934 0 0
11:55 pm 23:55 Cloudy 36 2.3 32 -0.2 84 84 N 18 30 29.8 1009 10 16.0934 0 0

Powered by AerisWeather